Location: Borea
(45.6167°N, 23.0167°E)
Time: 10:35:12
(UTC+00:00)

Lacrosse 5 rocket - Pass Details

Date: 03 February 2023
Orbit: 455 x 612 km, 57.0° (Epoch: 30 March)

Event Time Altitude Azimuth Distance (km) Brightness Sun altitude
Rises 16:10:59 0° 313° (NW) 2,477 5.1 -6.5°
Reaches altitude 10° 16:13:26 10° 329° (NNW) 1,609 3.9 -6.9°
Maximum altitude 16:16:20 22° 23° (NNE) 1,055 2.4 -7.4°
Enters shadow 16:19:14 10° 76° (ENE) 1,626 3.0 -7.9°
